This is the latest recevied weather packets stored in our database for station/object N8HON. If no packets are shown the sender has not sent any weather packets the latest 10 day(s).
| Time | Temp. | Humidity | Pressure | Rain* | Wind** | Luminosity | Snow |
|---|---|---|---|---|---|---|---|
| 1777355787 | 11.67° C | 70% | 1019 hPa | 0 mm | - | 0 W/m² | - |
| 1777355484 | 11.67° C | 71% | 1019.2 hPa | 0 mm | - | 0 W/m² | - |
| 1777355180 | 11.11° C | 71% | 1019.3 hPa | 0 mm | - | 0 W/m² | - |
| 1777354876 | 11.11° C | 71% | 1019.1 hPa | 0 mm | - | 0 W/m² | - |
| 1777354573 | 11.67° C | 71% | 1019.1 hPa | 0 mm | - | 0 W/m² | - |
| 1777354269 | 11.67° C | 71% | 1019.4 hPa | 0 mm | - | 0 W/m² | - |
| 1777353966 | 11.67° C | 71% | 1019.4 hPa | 0 mm | - | 0 W/m² | - |
| 1777353662 | 11.67° C | 72% | 1019.4 hPa | 0 mm | - | 0 W/m² | - |
| 1777353360 | 11.67° C | 71% | 1019.4 hPa | 0 mm | - | 0 W/m² | - |
| 1777353057 | 11.67° C | 70% | 1019.7 hPa | 0 mm | - | 0 W/m² | - |
| 1777352756 | 11.67° C | 70% | 1019.6 hPa | 0 mm | - | 0 W/m² | - |
| 1777352455 | 11.11° C | 70% | 1019.8 hPa | 0 mm | - | 0 W/m² | - |
| 1777352151 | 11.11° C | 71% | 1019.6 hPa | 0 mm | - | 0 W/m² | - |
| 1777351848 | 11.11° C | 71% | 1019.4 hPa | 0 mm | - | 0 W/m² | - |
| 1777351546 | 10.56° C | 72% | 1019.6 hPa | 0 mm | - | 0 W/m² | - |
| 1777351244 | 11.11° C | 72% | 1019.6 hPa | 0 mm | - | 0 W/m² | - |
| 1777350943 | 11.11° C | 71% | 1019.8 hPa | 0 mm | - | 0 W/m² | - |
| 1777350639 | 11.11° C | 71% | 1019.4 hPa | 0 mm | - | 0 W/m² | - |
| 1777350336 | 11.11° C | 71% | 1019.7 hPa | 0 mm | - | 0 W/m² | - |
| 1777350033 | 11.11° C | 70% | 1019.4 hPa | 0 mm | - | 0 W/m² | - |
| 1777349730 | 11.67° C | 70% | 1019.5 hPa | 0 mm | - | 0 W/m² | - |
| 1777349427 | 11.67° C | 70% | 1019.5 hPa | 0 mm | - | 0 W/m² | - |
| 1777349126 | 11.67° C | 69% | 1019.5 hPa | 0 mm | - | 0 W/m² | - |
| 1777348822 | 11.67° C | 68% | 1019.8 hPa | 0 mm | - | 0 W/m² | - |
| 1777348520 | 12.22° C | 68% | 1020.1 hPa | 0 mm | - | 0 W/m² | - |
* Rain latest hour (hover to see other rain measurements)
** Current wind speed in m/s (hover to see current wind gust speed)